This is the latest recevied weather packets stored in our database for station/object OK0EK-11. If no packets are shown the sender has not sent any weather packets the latest 10 day(s).
| Time | Temp. | Humidity | Pressure | Rain* | Wind** | Luminosity | Snow |
|---|---|---|---|---|---|---|---|
| 1778061371 | 15.56° C | 64% | 1011.9 hPa | - | - | - | - |
| 1778060771 | 15.56° C | 65% | 1012 hPa | - | - | - | - |
| 1778060172 | 15° C | 65% | 1011.9 hPa | - | - | - | - |
| 1778059573 | 15.56° C | 64% | 1011.9 hPa | - | - | - | - |
| 1778058974 | 15.56° C | 64% | 1011.9 hPa | - | - | - | - |
| 1778058374 | 15° C | 67% | 1012 hPa | - | - | - | - |
| 1778057775 | 14.44° C | 67% | 1011.8 hPa | - | - | - | - |
| 1778057175 | 14.44° C | 69% | 1011.6 hPa | - | - | - | - |
| 1778056575 | 13.89° C | 73% | 1011.5 hPa | - | - | - | - |
| 1778055975 | 13.33° C | 73% | 1011.5 hPa | - | - | - | - |
| 1778055376 | 13.89° C | 74% | 1011.3 hPa | - | - | - | - |
| 1778054776 | 13.33° C | 75% | 1011.4 hPa | - | - | - | - |
| 1778054177 | 12.78° C | 76% | 1011.1 hPa | - | - | - | - |
| 1778053577 | 12.78° C | 77% | 1011.2 hPa | - | - | - | - |
| 1778052978 | 12.78° C | 77% | 1011.1 hPa | - | - | - | - |
| 1778052378 | 12.22° C | 78% | 1011.1 hPa | - | - | - | - |
| 1778051778 | 12.22° C | 78% | 1011.1 hPa | - | - | - | - |
| 1778051178 | 12.22° C | 79% | 1011.1 hPa | - | - | - | - |
| 1778050579 | 12.22° C | 80% | 1011.2 hPa | - | - | - | - |
| 1778049979 | 11.11° C | 81% | 1011.2 hPa | - | - | - | - |
| 1778049379 | 11.11° C | 81% | 1010.9 hPa | - | - | - | - |
| 1778048779 | 11.11° C | 82% | 1010.7 hPa | - | - | - | - |
| 1778048187 | 10.56° C | 82% | 1010.6 hPa | - | - | - | - |
| 1778048180 | 10.56° C | 82% | 1010.6 hPa | - | - | - | - |
| 1778047581 | 10° C | 83% | 1010.6 hPa | - | - | - | - |
* Rain since midnight (hover to see other rain measurements)
** Current wind speed in m/s (hover to see current wind gust speed)